TimeEDT,TemperatureF,Dew PointF,Humidity,Sea Level PressureIn,VisibilityMPH,Wind Direction,Wind SpeedMPH,Gust SpeedMPH,PrecipitationIn,Events,Conditions,WindDirDegrees,DateUTC
12:15 AM,55.6,48.9,78,30.01,10.0,NNW,5.8,-,N/A,,Clear,340,2013-06-14 04:15:00
12:35 AM,55.2,48.9,79,30.02,10.0,North,3.5,-,N/A,,Clear,350,2013-06-14 04:35:00
12:55 AM,54.9,48.7,80,30.02,10.0,North,3.5,-,N/A,,Clear,350,2013-06-14 04:55:00
1:15 AM,54.5,48.7,81,30.02,10.0,North,3.5,-,N/A,,Clear,350,2013-06-14 05:15:00
1:35 AM,54.5,49.1,82,30.03,10.0,North,3.5,-,N/A,,Clear,350,2013-06-14 05:35:00
1:55 AM,54.1,49.1,83,30.03,10.0,North,3.5,-,N/A,,Clear,360,2013-06-14 05:55:00
2:15 AM,53.8,49.5,85,30.03,10.0,Calm,Calm,-,N/A,,Clear,0,2013-06-14 06:15:00
2:35 AM,54.0,49.1,84,30.04,10.0,NNW,4.6,-,N/A,,Clear,330,2013-06-14 06:35:00
2:55 AM,53.8,48.6,82,30.04,10.0,NNW,3.5,-,N/A,,Clear,340,2013-06-14 06:55:00
3:15 AM,53.2,49.5,87,30.04,10.0,North,3.5,-,N/A,,Clear,10,2013-06-14 07:15:00
3:35 AM,52.7,49.6,89,30.04,10.0,North,4.6,-,N/A,,Clear,10,2013-06-14 07:35:00
3:54 AM,52.7,50.0,91,30.04,10.0,North,4.6,-,N/A,,Clear,10,2013-06-14 07:54:00
4:15 AM,52.7,50.0,91,30.04,10.0,NW,5.8,-,N/A,,Clear,320,2013-06-14 08:15:00
4:35 AM,52.7,49.5,89,30.05,10.0,North,3.5,-,N/A,,Clear,350,2013-06-14 08:35:00
4:54 AM,52.2,49.5,91,30.04,10.0,NNE,3.5,-,N/A,,Clear,30,2013-06-14 08:54:00
5:15 AM,51.8,49.3,91,30.05,10.0,Calm,Calm,-,N/A,,Clear,0,2013-06-14 09:15:00
5:35 AM,51.3,49.1,92,30.05,10.0,Calm,Calm,-,N/A,,Clear,0,2013-06-14 09:35:00
5:54 AM,51.3,49.1,92,30.06,10.0,Calm,Calm,-,N/A,,Clear,0,2013-06-14 09:54:00
6:15 AM,51.1,48.6,91,30.06,10.0,Calm,Calm,-,N/A,,Clear,0,2013-06-14 10:15:00
6:35 AM,49.6,48.2,95,30.06,10.0,Calm,Calm,-,N/A,,Clear,0,2013-06-14 10:35:00
6:55 AM,51.1,49.3,94,30.06,10.0,North,3.5,-,N/A,,Clear,10,2013-06-14 10:55:00
7:15 AM,52.3,49.6,91,30.07,10.0,North,3.5,-,N/A,,Clear,350,2013-06-14 11:15:00
7:35 AM,54.3,49.6,84,30.08,10.0,NNE,5.8,-,N/A,,Clear,20,2013-06-14 11:35:00
7:55 AM,55.2,47.3,75,30.09,10.0,North,4.6,-,N/A,,Clear,350,2013-06-14 11:55:00
8:15 AM,56.5,46.6,69,30.10,10.0,NNW,3.5,-,N/A,,Clear,340,2013-06-14 12:15:00
8:35 AM,57.6,46.9,68,30.10,10.0,NE,4.6,-,N/A,,Clear,40,2013-06-14 12:35:00
8:55 AM,58.5,46.8,65,30.11,10.0,NNE,4.6,-,N/A,,Clear,30,2013-06-14 12:55:00
9:15 AM,59.4,46.8,63,30.12,10.0,NNE,3.5,-,N/A,,Clear,20,2013-06-14 13:15:00
9:35 AM,60.4,46.9,61,30.12,10.0,Calm,Calm,-,N/A,,Clear,0,2013-06-14 13:35:00
9:55 AM,61.9,46.8,58,30.12,10.0,Calm,Calm,-,N/A,,Clear,0,2013-06-14 13:55:00
10:15 AM,62.6,46.2,55,30.12,10.0,Calm,Calm,-,N/A,,Clear,0,2013-06-14 14:15:00
10:35 AM,64.0,46.6,53,30.13,10.0,Calm,Calm,-,N/A,,Clear,0,2013-06-14 14:35:00
10:55 AM,65.5,47.7,53,30.12,10.0,WSW,4.6,-,N/A,,Clear,240,2013-06-14 14:55:00
11:15 AM,65.7,47.5,52,30.12,10.0,Calm,Calm,-,N/A,,Clear,0,2013-06-14 15:15:00
11:35 AM,66.7,44.2,44,30.12,10.0,Calm,Calm,-,N/A,,Clear,0,2013-06-14 15:35:00
11:55 AM,67.5,44.6,44,30.12,10.0,Calm,Calm,-,N/A,,Clear,0,2013-06-14 15:55:00
12:15 PM,69.3,41.9,37,30.11,10.0,NNE,3.5,-,N/A,,Clear,20,2013-06-14 16:15:00
12:34 PM,69.4,41.9,37,30.11,10.0,NNW,4.6,-,N/A,,Clear,340,2013-06-14 16:34:00
12:55 PM,70.0,40.5,34,30.10,10.0,ENE,3.5,-,N/A,,Clear,60,2013-06-14 16:55:00
1:15 PM,70.7,41.5,35,30.10,10.0,Calm,Calm,-,N/A,,Clear,0,2013-06-14 17:15:00
1:35 PM,71.6,37.9,29,30.09,10.0,NNW,4.6,-,N/A,,Clear,340,2013-06-14 17:35:00
1:55 PM,72.3,38.5,29,30.09,10.0,NE,5.8,-,N/A,,Clear,40,2013-06-14 17:55:00
2:15 PM,73.0,39.2,29,30.08,10.0,NW,3.5,-,N/A,,Clear,310,2013-06-14 18:15:00
2:35 PM,73.8,38.8,28,30.08,10.0,NW,5.8,-,N/A,,Clear,320,2013-06-14 18:35:00
2:55 PM,74.5,40.5,29,30.06,10.0,Calm,Calm,-,N/A,,Clear,0,2013-06-14 18:55:00
3:15 PM,74.3,38.7,28,30.07,10.0,NNW,6.9,-,N/A,,Clear,340,2013-06-14 19:15:00
3:34 PM,74.8,37.2,26,30.06,10.0,NNW,9.2,-,N/A,,Clear,330,2013-06-14 19:34:00
3:55 PM,75.7,35.6,23,30.06,10.0,Calm,Calm,-,N/A,,Clear,0,2013-06-14 19:55:00
4:15 PM,76.5,37.9,25,30.06,10.0,WNW,6.9,-,N/A,,Clear,300,2013-06-14 20:15:00
4:34 PM,75.6,39.0,27,30.06,10.0,Calm,Calm,-,N/A,,Clear,0,2013-06-14 20:34:00
4:55 PM,76.5,35.6,23,30.05,10.0,West,5.8,-,N/A,,Clear,260,2013-06-14 20:55:00
5:15 PM,76.1,34.5,22,30.05,10.0,NNW,8.1,-,N/A,,Clear,330,2013-06-14 21:15:00
5:35 PM,77.0,34.5,21,30.05,10.0,West,3.5,-,N/A,,Clear,270,2013-06-14 21:35:00
5:55 PM,77.5,41.7,28,30.04,10.0,West,4.6,-,N/A,,Clear,280,2013-06-14 21:55:00
6:15 PM,77.0,41.5,28,30.04,10.0,West,10.4,-,N/A,,Clear,260,2013-06-14 22:15:00
6:35 PM,76.3,41.5,29,30.04,10.0,West,10.4,-,N/A,,Clear,270,2013-06-14 22:35:00
6:55 PM,76.1,39.2,26,30.04,10.0,West,9.2,18.4,N/A,,Clear,280,2013-06-14 22:55:00
7:14 PM,75.6,38.8,27,30.03,10.0,West,5.8,-,N/A,,Clear,280,2013-06-14 23:14:00
7:35 PM,73.4,41.7,32,30.04,10.0,NW,10.4,18.4,N/A,,Clear,310,2013-06-14 23:35:00
7:55 PM,72.3,40.8,32,30.04,10.0,WNW,10.4,21.9,N/A,,Clear,300,2013-06-14 23:55:00
8:15 PM,71.4,39.4,31,30.04,10.0,WNW,6.9,-,N/A,,Clear,290,2013-06-15 00:15:00
8:35 PM,70.0,40.8,35,30.04,10.0,NW,5.8,-,N/A,,Clear,320,2013-06-15 00:35:00
8:55 PM,68.2,41.5,38,30.04,10.0,NW,4.6,-,N/A,,Clear,320,2013-06-15 00:55:00
9:15 PM,66.4,41.2,40,30.04,10.0,NW,4.6,-,N/A,,Clear,320,2013-06-15 01:15:00
9:35 PM,64.2,42.4,45,30.05,10.0,NW,3.5,-,N/A,,Clear,320,2013-06-15 01:35:00
9:55 PM,61.9,43.2,50,30.05,10.0,NNW,5.8,-,N/A,,Clear,340,2013-06-15 01:55:00
10:14 PM,62.1,41.4,47,30.06,10.0,NW,4.6,-,N/A,,Clear,320,2013-06-15 02:14:00
10:35 PM,59.7,42.8,54,30.06,10.0,NW,3.5,-,N/A,,Clear,310,2013-06-15 02:35:00
10:55 PM,56.1,45.7,68,30.06,10.0,Calm,Calm,-,N/A,,Clear,0,2013-06-15 02:55:00
11:15 PM,56.8,45.1,65,30.06,10.0,Calm,Calm,-,N/A,,Clear,0,2013-06-15 03:15:00
11:35 PM,54.9,44.6,68,30.06,10.0,Calm,Calm,-,N/A,,Clear,0,2013-06-15 03:35:00
11:54 PM,55.4,44.6,67,30.06,10.0,Calm,Calm,-,N/A,,Clear,0,2013-06-15 03:54:00